Flag for U.S.A. Weather past 2 weeks in Canton, Ohio, U.S.A.

Now
68 °F

Passing clouds.


Feels Like: 68 °F
Forecast: 69 / 81 °F
Wind: 5 mph from South

Location: Akron-Canton Regional Airport

Current Time: Aug 22, 2014 at 4:31:13 AM

Latest Report: Aug 22, 2014 at 3:51 AM


Visibility: 8 mi

Pressure: 29.96 "Hg

Humidity: 90%

Dew point: 65 °F

Location of CantonLocation

Historic Weather in Canton — Graph

°F

Canton temperature yesterday

Maximum temperature yesterday: 79 °F (at 12:51 PM)
Minimum temperature yesterday: 67 °F (at 4:51 AM)
Average temperature yesterday: 73 °F

Past Weeks' High & Low Weather Summary

 TemperatureHumidityPressure
High85 °F (Aug 19, 2:51 PM)94% (Aug 20, 5:58 AM)30.15 "Hg (Aug 20, 5:58 AM)
Low51 °F (Aug 15, 6:51 AM)33% (Aug 13, 4:51 PM)29.69 "Hg (Aug 12, 4:51 PM)
Average69 °F69%29.96 "Hg
* Reported Aug 7 2:51 AM — Aug 22 2:51 AM, Canton, Weather by CustomWeather, © 2014

Note: Actual official high and low records may vary slightly from our data, if they occured in-between our weather recording intervals... More about our weather records

Advertising

Canton weather history for previous 24 hours

 ConditionsComfort  
Time TempWeatherWind HumidityBarometerVisibility
2:51 AM
Aug 22
70 °FMostly cloudy.No wind87%29.97 "Hg10 mi
1:51 AM71 °FLight rain. Overcast.No wind87%30.00 "Hg10 mi
12:51 AM71 °FPassing clouds.6 mph87%30.01 "Hg10 mi
11:51 PM
Aug 21
71 °FPassing clouds.5 mph87%30.01 "Hg10 mi
10:51 PM72 °FPassing clouds.8 mph84%30.01 "Hg10 mi
9:51 PM73 °FPassing clouds.8 mph81%30.01 "Hg10 mi
8:51 PM73 °FBroken clouds.7 mph79%30.00 "Hg10 mi
7:51 PM74 °FMostly cloudy.7 mph76%29.99 "Hg10 mi
6:51 PM75 °FOvercast.10 mph71%30.00 "Hg10 mi
5:51 PM76 °FMostly cloudy.9 mph72%29.99 "Hg10 mi
4:51 PM76 °FMore clouds than sun.12 mph72%29.98 "Hg10 mi
3:51 PM78 °FCloudy.12 mph64%29.98 "Hg10 mi
2:51 PM79 °FMostly cloudy.16 mph67%30.00 "Hg10 mi
1:51 PM79 °FMostly cloudy.12 mph67%30.02 "Hg10 mi
12:51 PM79 °FMostly cloudy.8 mph72%30.02 "Hg10 mi
11:51 AM78 °FPartly sunny.6 mph71%30.02 "Hg10 mi
10:51 AM76 °FMostly cloudy.10 mph77%30.03 "Hg10 mi
9:51 AM74 °FBroken clouds.8 mph79%30.02 "Hg10 mi
8:51 AM71 °FScattered clouds.6 mph81%30.02 "Hg7 mi
7:51 AM68 °FFog.3 mph87%30.00 "Hg5 mi
6:51 AM67 °FPassing clouds.No wind87%29.99 "Hg7 mi
5:51 AM68 °FPassing clouds.6 mph84%29.98 "Hg9 mi
4:51 AM67 °FClear.5 mph87%29.97 "Hg9 mi
Weather by CustomWeather, © 2014

See weather overviewHow to use our weather pages